Temperature
-11 -10 -10 -9 -9 -9 -8 -8 -8 -8 -7 -6 -5 -3 -2 -1 1 2 4 6 7 8 9 10 10 11 12 12 13 13 13 13 13 13 13 14 14 14
-10 -10 -9 -9 -8 -8 -8 -8 -8 -8 -7 -6 -5 -4 -3 -1 0 2 3 5 6 8 8 9 10 11 11 12 12 12 12 13 13 13 13 13 14 14
-10 -9 -9 -9 -9 -8 -8 -8 -8 -7 -7 -6 -5 -4 -3 -2 -0 1 3 4 6 7 8 8 9 10 11 11 12 12 12 12 12 12 13 13 13 13
-10 -9 -9 -9 -9 -9 -8 -8 -8 -7 -7 -6 -5 -4 -3 -2 -1 1 2 4 5 7 8 8 9 10 10 11 11 12 12 12 12 12 13 13 13 13
-10 -10 -10 -9 -9 -9 -9 -9 -8 -8 -7 -6 -5 -4 -3 -2 -1 0 2 3 5 6 7 8 8 9 10 10 11 11 12 12 12 12 12 12 12 13
-10 -10 -10 -10 -10 -10 -9 -9 -9 -9 -8 -7 -6 -5 -4 -3 -2 -0 2 3 4 6 7 8 8 9 9 10 11 11 12 12 12 12 12 12 12 12
-10 -10 -10 -10 -10 -10 -10 -10 -10 -9 -9 -8 -7 -5 -4 -3 -2 -1 0 2 4 5 6 7 8 9 9 10 10 11 11 12 12 12 12 12 12 12
-11 -11 -11 -11 -11 -11 -11 -10 -10 -10 -10 -9 -8 -7 -6 -4 -3 -2 -1 1 3 4 6 7 8 8 9 9 10 11 11 11 12 12 12 12 12 12
-12 -12 -12 -11 -11 -11 -10 -10 -10 -10 -10 -10 -9 -8 -7 -6 -4 -3 -2 -1 2 3 5 6 7 8 8 9 10 10 11 11 12 12 12 12 12 12
-13 -13 -13 -12 -11 -11 -11 -11 -11 -10 -10 -10 -10 -9 -8 -6 -5 -4 -2 -1 1 2 3 5 6 7 8 8 9 10 10 11 11 12 12 12 12 11
-13 -13 -13 -13 -12 -12 -12 -11 -11 -10 -10 -9 -9 -9 -8 -6 -5 -4 -3 -2 -0 1 3 4 5 6 7 8 8 9 10 10 11 11 11 11 11 11
-14 -14 -13 -13 -13 -13 -13 -13 -12 -11 -10 -9 -8 -8 -7 -6 -5 -4 -3 -2 -1 1 2 3 4 5 6 7 8 8 9 10 10 10 10 11 10 10
-14 -14 -14 -13 -14 -13 -13 -13 -13 -12 -10 -10 -9 -8 -7 -6 -5 -4 -3 -2 -1 0 2 3 4 5 6 6 7 7 8 9 9 9 9 10 10 10
-14 -14 -14 -14 -14 -14 -14 -13 -12 -11 -11 -10 -9 -8 -7 -6 -5 -4 -3 -2 -1 -0 1 2 3 4 5 6 6 7 7 8 8 8 8 9 9 9
-14 -14 -14 -14 -14 -14 -14 -14 -12 -12 -11 -11 -10 -10 -9 -8 -6 -4 -3 -3 -2 -0 1 1 2 3 5 6 6 6 6 6 7 7 7 7 7 7
-13 -13 -14 -14 -14 -14 -14 -13 -13 -13 -13 -12 -11 -10 -9 -8 -6 -5 -3 -2 -2 -1 0 1 2 3 4 5 6 5 5 5 5 6 6 5 5 6
-13 -13 -14 -14 -14 -14 -14 -14 -14 -13 -12 -12 -11 -10 -10 -9 -8 -6 -4 -3 -2 -1 -0 1 2 3 3 4 4 4 5 5 4 4 5 4 4 3
-13 -13 -14 -14 -14 -14 -14 -14 -14 -14 -13 -13 -12 -11 -11 -10 -9 -7 -6 -4 -3 -1 -1 -0 1 2 2 2 2 3 4 4 3 4 4 4 3 2
-13 -13 -14 -14 -14 -14 -14 -14 -14 -14 -14 -13 -13 -12 -11 -11 -10 -9 -7 -6 -4 -3 -1 -1 0 1 1 0 -0 1 2 2 2 2 2 3 2 1
-12 -13 -13 -13 -14 -14 -14 -14 -14 -14 -14 -13 -13 -12 -12 -11 -11 -10 -9 -8 -6 -4 -3 -2 -1 0 1 0 -1 -1 -0 1 2 2 1 1 0 0
-12 -12 -12 -13 -13 -14 -14 -14 -14 -14 -14 -14 -13 -13 -12 -12 -12 -11 -10 -9 -8 -6 -4 -3 -2 -1 -0 -0 -1 -2 -2 -1 0 2 1 1 -0 -1
-11 -11 -12 -12 -13 -13 -13 -14 -14 -14 -14 -14 -14 -13 -13 -12 -12 -12 -11 -11 -10 -9 -7 -6 -5 -3 -2 -2 -3 -3 -3 -2 -2 -1 0 1 1 -0
-11 -11 -11 -11 -12 -12 -13 -13 -13 -14 -14 -14 -14 -14 -13 -13 -13 -12 -12 -12 -11 -10 -9 -8 -7 -6 -5 -5 -5 -5 -4 -4 -3 -2 -1 -1 -0 -0
Wind_Speed
11 12 10 10 10 10 10 10 10 12 11 7 5 8 10 9 14 11 10 14 13 10 8 7 7 10 14 18 25 29 30 29 27 27 28 30 30 30
10 11 10 9 8 9 9 9 9 10 11 6 8 11 13 12 15 11 11 16 12 9 8 7 7 9 13 16 21 28 30 31 29 29 31 31 31 30
9 8 9 9 8 7 7 7 8 8 11 10 9 10 11 11 11 9 9 7 7 9 9 7 6 8 12 15 20 26 31 31 31 31 32 32 31 30
11 10 9 9 10 8 7 7 7 7 8 11 10 9 9 9 9 9 7 6 5 8 9 7 5 6 11 14 18 22 27 29 30 30 30 31 30 29
12 12 12 11 11 10 9 8 7 8 7 8 8 7 6 7 7 7 6 5 5 5 7 6 5 6 9 13 16 20 24 28 30 30 29 30 30 30
13 13 13 13 12 12 11 10 9 8 8 7 7 7 6 6 5 4 4 3 3 3 4 5 5 7 10 12 15 18 22 25 29 30 29 29 29 29
13 14 14 19 22 17 14 12 12 9 8 8 8 7 7 7 5 5 5 4 3 1 2 2 2 4 6 8 11 15 19 22 26 29 30 30 30 30
13 14 14 16 21 22 23 21 19 13 10 8 7 9 9 9 8 7 5 3 2 2 3 2 2 4 5 5 9 14 16 19 23 26 29 31 32 32
11 13 14 17 19 8 17 21 18 21 18 10 8 8 9 10 10 9 7 4 3 4 4 2 1 4 4 5 13 14 15 17 20 23 26 30 32 34
10 12 13 14 17 15 13 13 10 11 14 10 8 8 9 10 9 8 8 8 6 4 2 1 1 2 4 5 11 14 15 16 18 20 24 26 29 32
10 13 15 11 24 25 16 14 13 11 16 19 17 15 16 15 12 6 6 4 3 2 1 0 1 0 2 3 6 13 15 17 18 20 23 25 28 29
9 12 20 22 25 25 15 14 15 13 14 14 14 14 11 11 14 7 5 4 3 2 1 1 1 0 2 2 2 6 9 14 19 23 27 32 34 25
10 10 13 26 25 25 21 15 19 16 12 11 10 9 9 8 8 7 5 4 4 3 3 2 1 0 1 3 3 4 7 8 11 17 29 36 37 31
8 9 13 24 24 24 20 23 24 19 11 11 11 11 12 12 11 10 8 6 6 7 7 4 2 1 2 4 4 5 9 10 12 14 14 26 30 34
6 15 19 22 20 16 22 25 20 13 12 12 12 12 11 11 10 9 8 6 5 4 4 3 3 2 1 5 6 7 9 10 13 15 15 14 15 17
5 11 16 18 16 17 17 15 12 13 12 11 12 11 11 11 10 10 8 8 4 3 5 5 2 1 3 6 12 14 10 8 10 15 16 15 14 17
5 5 6 8 9 10 10 11 11 12 12 12 12 12 12 12 12 11 8 7 5 3 3 5 9 12 14 9 10 12 15 16 14 15 17 17 13 13
8 5 6 6 7 8 9 10 10 11 12 12 12 12 12 12 12 10 10 8 7 6 4 3 6 9 9 12 16 10 15 16 15 13 15 20 16 12
5 5 5 5 5 6 6 6 7 9 9 10 11 11 12 12 12 12 11 10 9 7 6 4 2 6 12 7 10 14 11 17 17 15 14 16 17 13
5 5 5 5 5 5 5 5 6 7 8 9 10 10 11 11 11 12 11 11 9 8 9 9 8 6 8 8 6 8 13 11 17 19 17 16 15 21
8 6 5 5 4 4 4 4 5 5 6 7 8 9 10 10 10 11 11 15 12 10 10 10 9 11 8 9 12 11 13 17 15 16 20 18 15 11
9 8 6 5 4 3 3 3 4 4 6 6 7 8 8 9 10 11 11 10 10 10 10 9 9 9 9 14 17 17 17 17 22 24 18 10 8 9
10 9 7 5 4 3 2 2 3 3 3 4 5 6 7 8 8 9 10 10 10 10 10 11 12 12 13 14 16 16 19 17 14 16 17 24 27 29
Wind_Direction
282 281 278 277 275 274 275 275 282 295 301 293 297 317 323 314 315 320 323 325 331 333 319 300 272 234 214 202 195 191 190 192 194 192 192 191 188 185
288 286 288 287 286 284 280 278 271 275 282 284 289 296 302 305 308 312 312 320 323 328 328 299 280 238 210 194 186 187 189 189 190 193 193 190 186 182
313 312 322 320 316 306 300 295 289 280 279 286 285 291 292 295 300 299 299 302 304 325 327 301 282 244 210 192 184 185 186 188 188 192 194 189 186 181
344 343 340 341 335 324 321 313 307 302 294 293 295 294 291 292 292 292 298 299 295 314 325 301 271 240 211 193 184 181 182 185 186 188 191 189 185 179
359 355 350 350 352 346 343 340 328 323 314 304 301 298 294 299 300 294 292 285 294 309 323 296 252 227 208 193 184 180 179 180 181 185 189 188 182 177
4 359 353 356 358 352 354 355 343 336 332 325 317 313 312 313 311 312 310 297 298 315 319 290 235 210 203 190 184 181 180 180 180 181 184 183 178 174
2 358 352 359 2 4 1 2 355 349 348 345 339 337 339 340 342 332 313 304 289 298 309 281 202 185 188 185 181 179 179 180 181 181 180 178 175 172
359 353 350 351 358 7 3 5 4 358 359 358 348 343 338 337 334 331 322 317 318 353 352 310 201 183 173 168 174 175 178 179 180 180 179 176 173 170
353 351 353 351 354 4 0 1 360 1 0 357 340 337 330 331 329 327 326 322 309 337 349 323 226 191 166 168 171 175 177 178 178 178 177 175 172 168
346 346 345 343 347 13 1 352 351 354 353 351 343 335 334 328 323 314 306 303 288 269 259 309 296 183 146 158 171 174 174 173 171 170 171 171 168 164
349 354 351 349 356 10 7 354 353 354 355 355 357 356 356 350 351 342 324 305 286 253 176 213 318 22 112 134 161 169 168 166 164 162 159 156 150 146
351 352 354 6 5 9 10 358 357 356 348 345 347 350 347 348 1 358 330 310 301 289 51 85 296 107 112 83 122 151 154 154 152 148 143 138 131 128
357 354 353 7 9 9 11 6 3 1 348 343 343 346 347 349 347 339 320 292 285 293 351 5 323 356 140 114 78 110 127 129 129 132 133 132 130 129
352 346 356 6 9 9 10 9 7 4 355 353 355 357 355 351 343 331 315 291 262 267 297 313 296 251 149 116 104 96 102 108 114 115 117 118 119 123
349 354 1 5 7 5 7 10 7 2 0 358 357 353 346 338 338 337 332 325 294 276 293 276 256 258 181 131 120 120 107 96 106 111 108 109 114 118
349 351 358 0 5 5 6 5 3 2 3 356 351 347 346 350 356 355 351 349 345 347 359 6 24 101 108 118 128 126 116 111 109 107 104 96 91 100
355 355 352 354 358 0 2 3 3 2 1 357 357 355 356 359 0 360 359 0 8 7 20 43 67 73 65 76 120 118 117 114 116 115 110 101 89 93
2 347 340 344 349 353 356 357 0 2 359 357 359 359 359 0 1 3 9 11 12 15 26 62 108 102 81 50 32 115 120 119 117 113 116 114 105 96
359 329 323 325 330 337 343 347 349 350 352 356 360 360 0 3 7 9 12 12 12 14 16 17 68 125 124 102 24 26 114 123 119 111 107 113 115 114
331 316 312 312 316 323 332 338 342 348 355 357 359 360 2 5 10 12 14 18 17 21 31 33 33 70 115 117 101 46 51 110 123 119 113 106 104 108
333 321 309 303 303 311 320 330 337 345 352 354 358 359 1 6 11 13 16 23 29 33 43 43 47 72 92 100 99 84 68 74 101 120 125 120 115 111
336 328 317 300 293 294 304 320 335 345 352 356 355 358 0 7 10 13 18 23 29 36 47 51 51 66 86 108 110 106 99 92 85 84 80 95 129 134
336 332 323 306 286 270 269 291 314 331 346 353 355 357 1 8 10 15 20 26 33 41 53 65 71 76 84 96 105 107 103 100 95 86 77 85 97 105
Height
1410 1409 1407 1405 1403 1401 1399 1397 1394 1388 1383 1380 1379 1377 1376 1376 1377 1378 1379 1383 1387 1393 1398 1404 1412 1418 1424 1430 1436 1443 1451 1462 1472 1481 1490 1497 1504 1511
1408 1406 1404 1402 1400 1397 1394 1392 1389 1387 1381 1377 1376 1374 1373 1372 1373 1374 1376 1378 1383 1389 1393 1400 1406 1413 1419 1426 1432 1439 1446 1456 1465 1476 1484 1492 1499 1506
1408 1406 1403 1401 1397 1394 1391 1387 1385 1382 1379 1374 1372 1370 1369 1368 1369 1370 1372 1375 1379 1384 1389 1395 1402 1408 1415 1421 1428 1435 1442 1450 1459 1469 1479 1487 1495 1501
1409 1406 1404 1400 1396 1392 1388 1384 1381 1378 1376 1371 1368 1367 1365 1365 1365 1366 1368 1372 1375 1380 1385 1391 1397 1404 1410 1417 1424 1431 1438 1446 1453 1463 1472 1481 1489 1497
1412 1408 1405 1400 1396 1391 1387 1382 1378 1375 1372 1369 1365 1364 1362 1362 1362 1363 1365 1368 1371 1376 1382 1388 1394 1400 1406 1413 1419 1427 1434 1441 1448 1456 1466 1475 1484 1491
1414 1410 1406 1402 1397 1391 1386 1381 1377 1373 1369 1366 1363 1361 1360 1359 1359 1360 1363 1365 1369 1373 1378 1384 1390 1396 1402 1408 1415 1422 1429 1437 1444 1451 1459 1468 1478 1486
1416 1411 1407 1403 1398 1393 1387 1381 1376 1372 1368 1364 1361 1359 1358 1357 1357 1358 1360 1362 1366 1370 1375 1380 1385 1391 1397 1403 1410 1417 1424 1432 1439 1447 1454 1463 1471 1480
1416 1411 1407 1402 1398 1392 1386 1381 1376 1372 1368 1364 1361 1358 1357 1356 1356 1357 1358 1360 1364 1368 1371 1376 1381 1387 1392 1400 1406 1413 1420 1427 1434 1441 1449 1457 1465 1474
1417 1412 1407 1402 1397 1391 1385 1380 1375 1370 1368 1365 1361 1358 1356 1355 1354 1355 1356 1358 1361 1365 1369 1372 1377 1383 1389 1396 1403 1409 1416 1423 1430 1437 1444 1452 1460 1468
1418 1413 1409 1403 1398 1392 1385 1379 1375 1370 1366 1362 1360 1357 1355 1353 1353 1353 1354 1356 1358 1363 1367 1370 1374 1379 1385 1392 1399 1406 1412 1419 1425 1432 1439 1447 1455 1463
1420 1415 1410 1405 1400 1393 1385 1380 1375 1370 1366 1362 1358 1355 1353 1352 1351 1351 1353 1355 1357 1361 1364 1368 1372 1376 1382 1388 1395 1402 1409 1415 1421 1428 1435 1443 1451 1460
1421 1416 1411 1407 1401 1394 1387 1381 1376 1370 1365 1361 1357 1354 1351 1349 1349 1349 1351 1353 1355 1359 1362 1367 1370 1374 1379 1385 1391 1398 1405 1411 1417 1424 1431 1439 1447 1456
1423 1418 1413 1408 1402 1396 1390 1384 1379 1373 1366 1361 1356 1352 1349 1348 1347 1347 1349 1351 1354 1357 1361 1365 1368 1371 1374 1379 1387 1394 1400 1407 1414 1421 1429 1436 1443 1450
1425 1420 1416 1410 1404 1397 1392 1387 1380 1374 1368 1362 1357 1352 1348 1346 1345 1346 1347 1349 1352 1355 1359 1363 1366 1369 1371 1376 1383 1390 1397 1405 1411 1418 1427 1434 1441 1449
1426 1422 1417 1412 1405 1399 1394 1388 1381 1375 1370 1364 1359 1354 1350 1347 1345 1345 1346 1348 1350 1354 1357 1361 1365 1368 1371 1374 1379 1386 1394 1403 1409 1416 1425 1432 1438 1445
1425 1421 1417 1412 1407 1402 1396 1390 1384 1379 1374 1369 1364 1359 1354 1349 1346 1344 1345 1347 1350 1353 1357 1360 1364 1367 1370 1373 1378 1386 1392 1399 1408 1414 1423 1431 1439 1446
1424 1420 1416 1411 1407 1402 1397 1393 1388 1382 1377 1372 1367 1362 1357 1352 1348 1346 1346 1347 1350 1353 1356 1360 1363 1366 1370 1373 1377 1384 1390 1399 1408 1415 1422 1432 1442 1449
1424 1419 1416 1412 1408 1404 1400 1396 1391 1386 1381 1377 1372 1366 1361 1357 1353 1350 1349 1349 1351 1353 1356 1359 1362 1366 1370 1375 1380 1384 1389 1398 1408 1417 1424 1431 1442 1452
1423 1419 1416 1413 1410 1406 1403 1399 1395 1391 1386 1381 1376 1372 1367 1362 1358 1355 1353 1352 1352 1353 1356 1359 1363 1366 1369 1375 1384 1389 1392 1398 1407 1418 1426 1433 1441 1453
1423 1420 1416 1413 1410 1408 1405 1401 1398 1394 1390 1386 1381 1377 1373 1368 1364 1361 1358 1357 1355 1356 1357 1360 1363 1366 1369 1374 1383 1392 1398 1402 1407 1416 1425 1434 1443 1453
1424 1420 1417 1414 1411 1408 1406 1404 1401 1397 1394 1390 1386 1382 1378 1374 1371 1368 1365 1363 1360 1360 1360 1361 1364 1368 1372 1377 1383 1393 1401 1407 1412 1417 1425 1434 1443 1452
1426 1422 1418 1414 1411 1409 1407 1405 1403 1400 1397 1394 1391 1388 1384 1381 1377 1374 1371 1368 1366 1365 1364 1366 1368 1372 1375 1378 1383 1392 1401 1409 1416 1422 1430 1437 1442 1450
1427 1423 1419 1415 1412 1409 1407 1406 1404 1402 1400 1398 1395 1393 1390 1387 1384 1381 1378 1375 1373 1372 1371 1371 1374 1376 1379 1382 1386 1394 1402 1410 1417 1425 1434 1442 1448 1455